Location: Jaite
(41.2884°N, 81.5737°W)
Time: 06:09:07
(UTC+00:00)

Cosmos 2195 Rocket - Pass Details

Date: 15 November 2025
Orbit: 948 x 991 km, 82.9° (Epoch: 04 December)

Event Time Altitude Azimuth Distance (km) Brightness Sun altitude
Rises 00:14:49 0° 355° (N) 3,694 7.5 -23.9°
Reaches altitude 10° 00:17:23 10° 359° (N) 2,748 6.8 -24.4°
Maximum altitude 00:23:38 64° 80° (E) 1,089 4.4 -25.6°
Enters shadow 00:25:05 50° 134° (SE) 1,235 4.7 -25.9°
Exits shadow 00:32:12 - 165° (SSE) 3,598 7.3 -27.2°
Sets 00:32:26 0° 165° (SSE) 3,690 7.4 -27.2°
